Weather History for Pompano Beach, FL

Change the Weather History Date:

Wednesday, August 28, 2013

  Actual Average Record
Temperature  
Mean Temperature 80 °F -  
Max Temperature 87 °F 92 °F 97 °F (1982)
Min Temperature 73 °F 75 °F 66 °F (1950)
Cooling Degree Days 14    
Growing Degree Days 30 (Base 50)    
Moisture  
Dew Point 73 °F    
Average Humidity 79    
Maximum Humidity 94    
Minimum Humidity 61    
Precipitation  
Precipitation 0.00 in - - ()
Sea Level Pressure  
Sea Level Pressure 30.02 in    
Wind  
Wind Speed 7 mph (ESE)    
Max Wind Speed 12 mph    
Max Gust Speed -    
Visibility 8 miles    
Events Fog , Rain    
Averages and records for this station are not official NWS values.
T = Trace of Precipitation, MM = Missing Value Source: NWS Daily Summary

Daily Weather History Graph

Daily Weather History Graph

Search for Another Location

Airport:

Trip Planner

Search our weather history database for the weather conditions in past years. The results will help you decide how hot, cold, wet, or windy it might be!

Date:

Astronomy

Aug. 28, 2013 Rise Set
Actual Time 6:58 AM EDT 7:43 PM EDT
Civil Twilight 6:35 AM EDT 8:07 PM EDT
Nautical Twilight 6:07 AM EDT 8:35 PM EDT
Astronomical Twilight 5:39 AM EDT 9:03 PM EDT
Moon 12:19 AM EDT (8/28) 2:04 PM EDT (8/28)
Length of Visible Light 13h 32m
Length of Day
12h 45m
Waning Gibbous, 47% of the Moon is Illuminated
Aug 28
Waning Gibbous
Sep 5
New
Sep 12
First Quarter
Sep 19
Full
Sep 26
Last Quarter

Hourly Weather History & Observations

Time (EDT) Temp. Heat Index Dew Point Humidity Pressure Visibility Wind Dir Wind Speed Gust Speed Precip Events Conditions
12:53 AM 80.1 °F 83.6 °F 71.1 °F 74% 30.02 in 10.0 mi East 4.6 mph - N/A   Unknown
1:53 AM 80.1 °F 83.8 °F 72.0 °F 76% 30.00 in 10.0 mi East 8.1 mph - N/A   Unknown
2:53 AM 80.1 °F 83.8 °F 72.0 °F 76% 29.97 in 10.0 mi East 8.1 mph - N/A   Unknown
3:53 AM 80.1 °F 84.2 °F 73.0 °F 79% 29.97 in 10.0 mi East 5.8 mph - N/A   Unknown
4:53 AM 81.0 °F 85.2 °F 72.0 °F 74% 29.97 in 10.0 mi East 9.2 mph - N/A   Unknown
5:53 AM 80.1 °F 83.8 °F 72.0 °F 76% 29.98 in 10.0 mi East 5.8 mph - N/A   Unknown
6:53 AM 81.0 °F 85.2 °F 72.0 °F 74% 29.99 in 10.0 mi East 8.1 mph - N/A   Unknown
7:53 AM 82.0 °F 87.4 °F 73.0 °F 74% 30.01 in 10.0 mi East 6.9 mph - N/A   Mostly Cloudy
8:53 AM 84.0 °F 90.2 °F 73.0 °F 69% 30.02 in 10.0 mi ESE 9.2 mph - N/A   Unknown
9:53 AM 78.1 °F - 71.1 °F 79% 30.05 in 10.0 mi West 10.4 mph - N/A Rain Light Rain
10:08 AM 75.2 °F - 71.6 °F 89% 30.04 in 2.0 mi West 11.5 mph - N/A Rain Heavy Rain
10:17 AM 73.4 °F - 71.6 °F 94% 30.05 in 0.8 mi WSW 11.5 mph - N/A Rain Heavy Rain
10:27 AM 75.2 °F - 73.4 °F 94% 30.05 in 0.5 mi Variable 4.6 mph - N/A Fog , Rain Heavy Rain
10:33 AM 75.2 °F - 73.4 °F 94% 30.04 in 1.0 mi Calm Calm - N/A Rain Heavy Rain
10:37 AM 75.2 °F - 73.4 °F 94% 30.04 in 4.0 mi West 4.6 mph - N/A Rain Light Rain
10:53 AM 77.0 °F - 73.9 °F 90% 30.04 in 4.0 mi NW 5.8 mph - N/A   Mostly Cloudy
11:26 AM 78.8 °F - 73.4 °F 83% 30.06 in 1.8 mi South 6.9 mph - N/A Rain Heavy Rain
11:41 AM 75.2 °F - 73.4 °F 94% 30.05 in 4.0 mi WSW 5.8 mph - N/A Rain Rain
11:53 AM 75.9 °F - 73.9 °F 94% 30.05 in 6.0 mi NNW 4.6 mph - N/A Rain Heavy Rain
12:00 PM 77.0 °F - 73.4 °F 89% 30.05 in 6.0 mi NNW 3.5 mph - 0.02 in Rain Light Rain
12:53 PM 82.0 °F 87.4 °F 73.0 °F 74% 30.04 in 10.0 mi SE 5.8 mph - N/A   Unknown
1:53 PM 82.9 °F 87.5 °F 71.1 °F 67% 30.04 in 10.0 mi SSE 6.9 mph - N/A   Unknown
2:53 PM 86.0 °F 91.5 °F 71.1 °F 61% 30.01 in 10.0 mi ESE 8.1 mph - N/A   Unknown
3:53 PM 84.9 °F 91.4 °F 73.0 °F 67% 30.00 in 10.0 mi ESE 8.1 mph - N/A   Scattered Clouds
4:53 PM 84.9 °F 92.1 °F 73.9 °F 69% 29.98 in 10.0 mi ESE 11.5 mph - N/A   Scattered Clouds
5:53 PM 84.0 °F 91.2 °F 73.9 °F 72% 29.98 in 10.0 mi ESE 8.1 mph - N/A   Unknown
6:53 PM 82.9 °F 89.4 °F 73.9 °F 74% 29.99 in 10.0 mi East 9.2 mph - N/A   Scattered Clouds
7:53 PM 82.9 °F 89.4 °F 73.9 °F 74% 29.99 in 10.0 mi SE 8.1 mph - N/A   Scattered Clouds
8:53 PM 82.0 °F 87.9 °F 73.9 °F 76% 30.01 in 10.0 mi SSE 5.8 mph - N/A   Scattered Clouds
9:53 PM 82.0 °F 87.9 °F 73.9 °F 76% 30.03 in 10.0 mi Calm Calm - N/A   Unknown
10:53 PM 82.0 °F 88.6 °F 75.0 °F 79% 30.04 in 10.0 mi Calm Calm - N/A   Unknown
11:53 PM 82.0 °F 88.6 °F 75.0 °F 79% 30.04 in 10.0 mi Calm Calm - N/A Rain Light Rain